Météo par heure à Jullianges

Ce jour, 20 Juin, Dimanche

Heure Température Précipitation Vent Pression Humidité
00:00 +13°C° 0 mm 1 m/s 676 mmHg 95%
01:00 +13°C° 0.2 mm 1 m/s 675 mmHg 95%
02:00 +13°C° 0.2 mm 1 m/s 675 mmHg 94%
03:00 +13°C° 0.2 mm 1 m/s 674 mmHg 94%
04:00 +14°C° 0.2 mm 1 m/s 674 mmHg 93%
05:00 +15°C° 0.2 mm 1 m/s 674 mmHg 91%
06:00 +16°C° 0 mm 1 m/s 674 mmHg 90%
07:00 +18°C° 0 mm 2 m/s 674 mmHg 78%
08:00 +21°C° 0 mm 3 m/s 674 mmHg 66%
09:00 +23°C° 0 mm 5 m/s 674 mmHg 54%
10:00 +20°C° 1.2 mm 4 m/s 673 mmHg 66%
11:00 +18°C° 1.2 mm 3 m/s 672 mmHg 78%
12:00 +15°C° 0 mm 2 m/s 672 mmHg 91%
13:00 +14°C° 3.9 mm 2 m/s 672 mmHg 91%
14:00 +14°C° 3.9 mm 2 m/s 672 mmHg 91%
15:00 +13°C° 3.9 mm 2 m/s 672 mmHg 91%
16:00 +15°C° 0.1 mm 1 m/s 672 mmHg 85%
17:00 +16°C° 0.1 mm 1 m/s 672 mmHg 78%
18:00 +19°C° 0.1 mm 1 m/s 672 mmHg 71%
19:00 +16°C° 0.5 mm 1 m/s 672 mmHg 79%
20:00 +14°C° 0.5 mm 1 m/s 672 mmHg 87%
21:00 +12°C° 0.5 mm 1 m/s 672 mmHg 95%
22:00 +12°C° 0.3 mm 1 m/s 672 mmHg 95%
23:00 +12°C° 0.3 mm 1 m/s 672 mmHg 95%

Demain, 21 Juin, Lundi

Heure Température Précipitation Vent Pression Humidité
00:00 +11°C° 0.3 mm 0 m/s 672 mmHg 96%
01:00 +11°C° 0.1 mm 1 m/s 672 mmHg 96%
02:00 +11°C° 0.1 mm 1 m/s 672 mmHg 96%
03:00 +11°C° 0.1 mm 1 m/s 672 mmHg 96%
04:00 +12°C° 0 mm 1 m/s 672 mmHg 95%
05:00 +12°C° 0 mm 0 m/s 672 mmHg 93%
06:00 +13°C° 0 mm 0 m/s 672 mmHg 92%
07:00 +15°C° 0.3 mm 1 m/s 672 mmHg 88%
08:00 +16°C° 0.3 mm 1 m/s 673 mmHg 85%
09:00 +18°C° 0.3 mm 2 m/s 673 mmHg 81%
10:00 +18°C° 1 mm 2 m/s 673 mmHg 79%
11:00 +19°C° 1 mm 3 m/s 673 mmHg 78%
12:00 +19°C° 1 mm 3 m/s 673 mmHg 76%
13:00 +20°C° 1 mm 3 m/s 673 mmHg 74%
14:00 +20°C° 1 mm 3 m/s 673 mmHg 71%
15:00 +20°C° 1 mm 3 m/s 673 mmHg 69%
16:00 +19°C° 0.7 mm 3 m/s 673 mmHg 76%
17:00 +17°C° 0.7 mm 2 m/s 673 mmHg 83%
18:00 +16°C° 0.7 mm 2 m/s 673 mmHg 90%
19:00 +15°C° 1.2 mm 1 m/s 673 mmHg 92%
20:00 +13°C° 1.2 mm 1 m/s 673 mmHg 94%
21:00 +12°C° 1.2 mm 1 m/s 673 mmHg 97%
22:00 +12°C° 0.5 mm 1 m/s 673 mmHg 97%
23:00 +11°C° 0.5 mm 1 m/s 673 mmHg 97%

Après-demain, 22 Juin, Mardi

Heure Température Précipitation Vent Pression Humidité
00:00 +11°C° 0.5 mm 1 m/s 674 mmHg 98%
01:00 +11°C° 0.2 mm 1 m/s 674 mmHg 98%
02:00 +11°C° 0.2 mm 1 m/s 673 mmHg 98%
03:00 +10°C° 0.2 mm 0 m/s 673 mmHg 98%
04:00 +10°C° 0 mm 0 m/s 674 mmHg 96%
05:00 +11°C° 0 mm 0 m/s 674 mmHg 95%
06:00 +11°C° 0 mm 0 m/s 674 mmHg 94%
07:00 +14°C° 0.1 mm 1 m/s 675 mmHg 82%
08:00 +16°C° 0.1 mm 1 m/s 675 mmHg 70%
09:00 +17°C° 0.1 mm 2 m/s 676 mmHg 59%
10:00 +18°C° 0.1 mm 2 m/s 676 mmHg 53%
11:00 +19°C° 0.1 mm 2 m/s 676 mmHg 48%
12:00 +20°C° 0.1 mm 3 m/s 676 mmHg 43%
13:00 +20°C° 0.1 mm 2 m/s 676 mmHg 47%
14:00 +20°C° 0.1 mm 2 m/s 676 mmHg 51%
15:00 +19°C° 0.1 mm 2 m/s 676 mmHg 54%
16:00 +18°C° 0.2 mm 2 m/s 676 mmHg 63%
17:00 +17°C° 0.2 mm 2 m/s 676 mmHg 71%
18:00 +15°C° 0.2 mm 1 m/s 676 mmHg 80%
19:00 +14°C° 0.1 mm 1 m/s 676 mmHg 84%
20:00 +12°C° 0.1 mm 1 m/s 676 mmHg 89%
21:00 +11°C° 0.1 mm 1 m/s 677 mmHg 93%
22:00 +10°C° 0 mm 1 m/s 677 mmHg 94%
23:00 +10°C° 0 mm 1 m/s 677 mmHg 95%

23 Juin, Mercredi

Heure Température Précipitation Vent Pression Humidité
00:00 +9°C° 0 mm 1 m/s 677 mmHg 95%
01:00 +9°C° 0 mm 1 m/s 677 mmHg 96%
02:00 +9°C° 0 mm 1 m/s 677 mmHg 96%
03:00 +9°C° 0 mm 1 m/s 677 mmHg 96%
04:00 +10°C° 0 mm 1 m/s 677 mmHg 94%
05:00 +11°C° 0 mm 1 m/s 677 mmHg 93%
06:00 +11°C° 0 mm 0 m/s 677 mmHg 91%
07:00 +13°C° 0 mm 0 m/s 678 mmHg 80%
08:00 +15°C° 0 mm 0 m/s 678 mmHg 70%
09:00 +17°C° 0 mm 0 m/s 679 mmHg 59%
10:00 +18°C° 0.4 mm 0 m/s 679 mmHg 61%
11:00 +18°C° 0.4 mm 0 m/s 679 mmHg 63%
12:00 +18°C° 0.4 mm 0 m/s 679 mmHg 65%
13:00 +20°C° 1.2 mm 1 m/s 679 mmHg 69%
14:00 +19°C° 1.2 mm 1 m/s 678 mmHg 74%
15:00 +19°C° 1.2 mm 1 m/s 678 mmHg 78%
16:00 +18°C° 1.3 mm 1 m/s 678 mmHg 83%
17:00 +16°C° 1.3 mm 1 m/s 678 mmHg 88%
18:00 +15°C° 1.3 mm 1 m/s 678 mmHg 93%
19:00 +14°C° 0.6 mm 1 m/s 678 mmHg 94%
20:00 +13°C° 0.6 mm 1 m/s 678 mmHg 95%
21:00 +10°C° 0.6 mm 0 m/s 678 mmHg 97%
22:00 +10°C° 0.3 mm 0 m/s 678 mmHg 97%
23:00 +11°C° 0.3 mm 1 m/s 678 mmHg 97%

24 Juin, Jeudi

Heure Température Précipitation Vent Pression Humidité
00:00 +11°C° 0.3 mm 1 m/s 678 mmHg 97%
01:00 +10°C° 0 mm 0 m/s 678 mmHg 98%
02:00 +10°C° 0 mm 0 m/s 678 mmHg 98%
03:00 +10°C° 0 mm 0 m/s 678 mmHg 98%
04:00 +10°C° 0.1 mm 0 m/s 679 mmHg 98%
05:00 +11°C° 0.1 mm 0 m/s 679 mmHg 98%
06:00 +11°C° 0.1 mm 0 m/s 679 mmHg 97%
07:00 +11°C° 0.5 mm 0 m/s 679 mmHg 97%
08:00 +11°C° 0.5 mm 0 m/s 679 mmHg 97%
09:00 +12°C° 0.5 mm 0 m/s 679 mmHg 96%
10:00 +13°C° 1.1 mm 1 m/s 679 mmHg 94%
11:00 +14°C° 1.1 mm 1 m/s 680 mmHg 92%
12:00 +15°C° 1.1 mm 1 m/s 680 mmHg 90%
13:00 +15°C° 1.3 mm 2 m/s 680 mmHg 90%
14:00 +15°C° 1.3 mm 2 m/s 680 mmHg 89%
15:00 +15°C° 1.3 mm 2 m/s 680 mmHg 89%
16:00 +15°C° 1 mm 2 m/s 680 mmHg 90%
17:00 +14°C° 1 mm 1 m/s 680 mmHg 92%
18:00 +14°C° 1 mm 1 m/s 680 mmHg 94%
19:00 +13°C° 0.3 mm 1 m/s 680 mmHg 94%
20:00 +12°C° 0.3 mm 1 m/s 680 mmHg 95%
21:00 +10°C° 0.3 mm 1 m/s 680 mmHg 96%
22:00 +10°C° 0 mm 1 m/s 680 mmHg 96%
23:00 +10°C° 0 mm 1 m/s 680 mmHg 96%

25 Juin, Vendredi

Heure Température Précipitation Vent Pression Humidité
00:00 +9°C° 0 mm 1 m/s 680 mmHg 97%
01:00 +10°C° 0 mm 1 m/s 679 mmHg 97%
02:00 +10°C° 0 mm 1 m/s 679 mmHg 97%
03:00 +10°C° 0 mm 1 m/s 679 mmHg 97%
04:00 +9°C° 0 mm 0 m/s 679 mmHg 97%
05:00 +10°C° 0 mm 0 m/s 679 mmHg 96%
06:00 +10°C° 0 mm 0 m/s 680 mmHg 95%
07:00 +12°C° 0.1 mm 1 m/s 680 mmHg 89%
08:00 +14°C° 0.1 mm 1 m/s 680 mmHg 83%
09:00 +15°C° 0.1 mm 1 m/s 680 mmHg 77%
10:00 +16°C° 0.2 mm 1 m/s 680 mmHg 72%
11:00 +17°C° 0.2 mm 2 m/s 680 mmHg 67%
12:00 +18°C° 0.2 mm 2 m/s 680 mmHg 63%
13:00 +18°C° 0 mm 2 m/s 680 mmHg 62%
14:00 +18°C° 0 mm 2 m/s 680 mmHg 61%
15:00 +18°C° 0 mm 2 m/s 680 mmHg 60%
16:00 +18°C° 0 mm 2 m/s 680 mmHg 64%
17:00 +17°C° 0 mm 2 m/s 680 mmHg 68%
18:00 +16°C° 0 mm 2 m/s 679 mmHg 73%
19:00 +15°C° 0 mm 1 m/s 679 mmHg 80%
20:00 +13°C° 0 mm 1 m/s 679 mmHg 86%
21:00 +10°C° 0 mm 0 m/s 679 mmHg 93%
22:00 +10°C° 0 mm 0 m/s 679 mmHg 93%
23:00 +9°C° 0 mm 0 m/s 679 mmHg 93%
Voir plus

Nous avons besoin de votre consentement

Meteoprog et ses fournisseurs de services peuvent stocker et accéder à des données personnelles telles que des cookies, des identifiants d'appareils ou d'autres technologies similaires sur votre appareil et traiter ces données pour personnaliser le contenu et les publicités, ainsi que pour fournir des fonctionnalités de médias sociaux et analyser le trafic.

  • Stocker et/ou accéder à des informations sur votre appareil

    Des cookies, des identifiants d'appareils ou d'autres informations peuvent être stockés ou accessibles sur votre appareil aux fins indiquées ci-dessus.

  • Annonces et contenus personnalisés, mesure des annonces et des contenus, connaissance de l'audience et développement de produits

    Les annonces et le contenu peuvent être personnalisés en fonction d'un profil. D'autres données peuvent être ajoutées pour mieux personnaliser les annonces et le contenu. Les performances des publicités et du contenu peuvent être mesurées. Il est possible d'obtenir des informations sur le public qui a vu les publicités et le contenu. Ces données peuvent être utilisées pour développer ou améliorer l'expérience de l'utilisateur, les systèmes et les logiciels.

En cliquant sur "J'accepte", vous autorisez l'utilisation de cookies, des identifiants d'appareils, des balises web ou d'autres technologies similaires. Vos paramètres peuvent être modifiés dans le navigateur de votre appareil.

Dans certains cas, des intérêts légitimes peuvent être invoqués plutôt qu'un consentement. Vous pouvez en savoir plus à ce sujet dans notre Politique de confidentialité et de cookies.